Station BLTM3 - 8447387 - Borden Flats Light at Fall River, MA Image indicating link to RSS feed of recent meteorological observations for station BLTM3


Conditions at BLTM3 as of
(2:00 pm EDT)
1800 GMT on 04/15/2024:
     

Click on the graph icon in the table below to see a time series plot of the last five days of that observation.

5-day plot - Wind Direction Wind Direction (WDIR): SW ( 220 deg true )
5-day plot - Wind Speed Wind Speed (WSPD): 12.0 kts
5-day plot - Wind Gust Wind Gust (GST): 14.0 kts
5-day plot - Atmospheric Pressure Atmospheric Pressure (PRES):29.78 in
5-day plot - Pressure Tendency Pressure Tendency (PTDY):-0.05 in ( Falling )
5-day plot - Air Temperature Air Temperature (ATMP): 62.6 °F
5-day plot - Wind Speed at 10 Meters Wind Speed at 10 meters (WSPD10M): 11.7 kts
5-day plot - Wind Speed at 20 Meters Wind Speed at 20 meters (WSPD20M): 11.7 kts
5-day plot -  Wind Speed, Wind Gust and Atmospheric Pressure Combined plot of Wind Speed, Gust, and Air Pressure
NOS Water Level Observation Network Water Level
Previous observations
TIME
(EDT)
5-day plot - Wind Direction
WDIR
 
5-day plot - Wind Speed
WSPD
kts
5-day plot - Wind Gust
GST
kts
5-day plot - Wave Height
WVHT
ft
5-day plot - Dominant Wave Period
DPD
sec
5-day plot - Average Wave Period
APD
sec
5-day plot - Mean Wave Direction
MWD
 
5-day plot - Atmospheric Pressure
PRES
in
5-day plot - Pressure Tendency
PTDY
in
5-day plot - Air Temperature
ATMP
°F
5-day plot - Water Temperature
WTMP
°F
5-day plot - Dew Point
DEWP
°F
5-day plot - Salinity
SAL
psu
5-day plot - Visibility
VIS
nmi
5-day plot - Tide (above MLLW)
TIDE
ft
2024-04-15 01:54 pm SW 11.1 12.0----29.78- 62.6-----
2024-04-15 01:48 pmSSW 9.9 12.0----29.78- 65.3-----
2024-04-15 01:42 pmSSW 11.1 12.0----29.78- 66.2-----
2024-04-15 01:36 pm SW 9.9 12.0----29.78- 64.8-----
2024-04-15 01:30 pm SW 9.9 11.1----29.78- 64.2-----
2024-04-15 01:24 pm SW 9.9 11.1----29.78- 63.9-----
2024-04-15 01:18 pm SW 9.9 9.9----29.78- 63.1-----
2024-04-15 01:12 pm SW 7.0 8.9----29.78- 62.8-----
2024-04-15 01:06 pmWSW 6.0 8.0----29.78- 62.2-----
2024-04-15 01:00 pm SW 5.1 6.0----29.78-0.05 61.9-----
2024-04-15 12:54 pm SW 5.1 5.1----29.79- 61.3-----
2024-04-15 12:48 pm SW 5.1 5.1----29.79- 61.2-----
2024-04-15 12:42 pm SW 4.1 5.1----29.79- 60.8-----
2024-04-15 12:36 pmWSW 4.1 4.1----29.80- 59.9-----
2024-04-15 12:30 pm SW 4.1 4.1----29.80- 59.5-----
2024-04-15 12:24 pm SW 4.1 4.1----29.80- 59.4-----
2024-04-15 12:18 pm SW 4.1 5.1----29.80- 59.4-----
2024-04-15 12:12 pm SW 5.1 5.1----29.80- 59.7-----
2024-04-15 12:06 pm SW 5.1 5.1----29.81- 59.5-----
2024-04-15 12:00 pm SW 5.1 5.1----29.81-0.01 59.0-----
2024-04-15 11:54 am SW 5.1 5.1----29.81- 59.0-----
2024-04-15 11:48 am SW 5.1 6.0----29.82- 58.5-----
2024-04-15 11:42 am SW 6.0 6.0----29.82- 58.1-----
2024-04-15 11:36 amSSW 6.0 6.0----29.82- 57.6-----
2024-04-15 11:30 amSSW 6.0 6.0----29.82- 57.0-----
2024-04-15 11:24 am SW 6.0 7.0----29.83- 56.3-----
2024-04-15 11:18 am SW 7.0 7.0----29.83- 55.6-----
2024-04-15 11:12 am SW 7.0 7.0----29.83- 55.4-----
2024-04-15 11:06 am SW 7.0 7.0----29.83- 55.4-----
2024-04-15 11:00 amWSW 5.1 6.0----29.83+0.02 55.2-----
2024-04-15 10:54 amWSW 5.1 6.0----29.83- 55.0-----
2024-04-15 10:48 amWSW 5.1 5.1----29.83- 54.9-----
2024-04-15 10:42 am SW 4.1 5.1----29.83- 54.7-----
2024-04-15 10:36 am SW 5.1 5.1----29.83- 54.3-----
2024-04-15 10:30 am SW 5.1 5.1----29.83-------
2024-04-15 10:24 am SW 5.1 5.1----29.83-------
2024-04-15 10:18 amWSW 5.1 5.1----29.83- 53.6-----
2024-04-15 10:12 amWSW 4.1 4.1----29.83- 53.2-----
2024-04-15 10:06 amWSW 2.9 4.1----29.83- 53.1-----
2024-04-15 10:00 am W 4.1 4.1----29.83+0.06 52.9-----
2024-04-15 09:54 amWSW 5.1 5.1----29.83- 52.7-----
2024-04-15 09:48 amWSW 5.1 5.1----29.83- 52.5-----
2024-04-15 09:42 amWSW 5.1 5.1----29.83- 52.5-----
2024-04-15 09:36 am W 5.1 5.1----29.83- 52.3-----
2024-04-15 09:30 am W 4.1 5.1----29.83- 52.3-----
2024-04-15 09:24 am W 6.0 7.0----29.83- 52.2-----
2024-04-15 09:18 am W 7.0 8.0----29.82- 51.8-----
2024-04-15 09:12 amWSW 7.0 8.0----29.82- 51.8-----
2024-04-15 09:06 amWSW 7.0 7.0----29.82- 51.6-----
2024-04-15 09:00 amWSW 8.0 8.9----29.82+0.07 52.2-----
2024-04-15 08:54 am SW 8.0 8.9----29.83- 52.2-----
2024-04-15 08:48 am SW 7.0 8.9----29.83- 52.2-----
2024-04-15 08:42 amWSW 5.1 6.0----29.83- 52.2-----
2024-04-15 08:36 am W 5.1 6.0----29.83- 51.8-----
2024-04-15 08:30 amWSW 5.1 6.0----29.83- 52.0-----
2024-04-15 08:24 am SW 2.9 4.1----29.82- 52.2-----
2024-04-15 08:18 amSSW 4.1 5.1----29.82- 52.5-----
2024-04-15 08:12 amSSW 1.9 2.9----29.81- 52.3-----
2024-04-15 08:06 am S 1.9 2.9----29.81- 52.2-----
2024-04-15 08:00 am S 1.9 2.9----29.81+0.06 52.0-----
2024-04-15 07:54 am S 4.1 6.0----29.81- 51.8-----
2024-04-15 07:48 am S 5.1 7.0----29.81- 51.8-----
2024-04-15 07:42 am S 5.1 7.0----29.81- 51.4-----
2024-04-15 07:36 am S 5.1 5.1----29.80- 51.8-----
2024-04-15 07:30 am SE 2.9 4.1----29.80- 51.4-----
2024-04-15 07:24 am E 1.9 2.9----29.79- 51.1-----
2024-04-15 07:18 am NE 1.9 2.9----29.78- 51.1-----
2024-04-15 07:12 am N 1.9 2.9----29.78- 51.1-----
2024-04-15 07:06 am- 0.0 0.0----29.78- 51.1-----
2024-04-15 07:00 am- 0.0 1.0----29.78+0.04 50.9-----
2024-04-15 06:54 amWSW 1.0 1.9----29.78- 50.7-----
2024-04-15 06:48 am- 0.0 0.0----29.77- 50.5-----
2024-04-15 06:42 am- 0.0 0.0----29.77- 50.5-----
2024-04-15 06:36 amSSE 1.0 1.9----29.76- 50.2-----
2024-04-15 06:30 amSSE 2.9 4.1----29.76- 49.8-----
2024-04-15 06:24 am S 2.9 5.1----29.76- 49.6-----
2024-04-15 06:18 amSSE 4.1 5.1----29.76- 49.1-----
2024-04-15 06:12 am NE 6.0 8.0----29.75- 49.3-----
2024-04-15 06:06 am NE 6.0 6.0----29.75- 49.3-----
2024-04-15 06:00 amNNE 4.1 5.1----29.75+0.05 49.5-----
2024-04-15 05:54 amNNE 4.1 5.1----29.75- 49.5-----
2024-04-15 05:48 am NE 4.1 4.1----29.75- 49.5-----
2024-04-15 05:42 amNNE 4.1 4.1----29.75- 49.6-----
2024-04-15 05:36 am NE 2.9 4.1----29.75- 49.6-----
2024-04-15 05:30 am SE 1.9 2.9----29.75- 49.6-----
2024-04-15 05:24 am W 1.0 1.9----29.75- 49.6-----
2024-04-15 05:18 amNNW 1.9 2.9----29.75- 49.6-----
2024-04-15 05:12 am N 2.9 4.1----29.74- 49.8-----
2024-04-15 05:06 amNNE 1.9 2.9----29.74- 50.0-----
2024-04-15 05:00 am- 0.0 1.9----29.74+0.05 50.2-----
2024-04-15 04:54 am- 0.0 1.0----29.75- 50.4-----
2024-04-15 04:48 amSSW 1.9 2.9----29.74- 50.4-----
2024-04-15 04:42 am- 0.0 1.0----29.74- 50.2-----
2024-04-15 04:36 am- 0.0 1.0----29.73- 50.2-----
2024-04-15 04:30 am- 0.0 0.0----29.74- 50.2-----
2024-04-15 04:24 am- 0.0 1.0----29.74- 50.2-----
2024-04-15 04:18 amSSW 1.0 2.9----29.73- 50.4-----
2024-04-15 04:12 amSSE 1.9 4.1----29.73- 50.4-----
2024-04-15 04:06 amSSE 1.9 4.1----29.73- 50.5-----
2024-04-15 04:00 am S 4.1 5.1----29.73+0.03 50.4-----
2024-04-15 03:54 amSSW 4.1 5.1----29.73- 50.5-----
2024-04-15 03:48 am SW 5.1 7.0----29.72- 50.2-----
2024-04-15 03:42 am SW 6.0 7.0----29.72- 50.4-----
2024-04-15 03:36 amSSW 7.0 8.9----29.72- 50.5-----
2024-04-15 03:30 am SW 7.0 8.0----29.72- 50.7-----
2024-04-15 03:24 am SW 8.0 8.9----29.71- 50.5-----
2024-04-15 03:18 am SW 8.0 8.9----29.71- 51.1-----
2024-04-15 03:12 amSSW 8.0 8.9----29.70- 50.9-----
2024-04-15 03:06 amSSW 8.0 8.9----29.70- 50.5-----
2024-04-15 03:00 amSSW 7.0 8.0----29.70-0.02 50.5-----
2024-04-15 02:54 am SW 7.0 8.0----29.70- 50.4-----
2024-04-15 02:48 am SW 7.0 8.0----29.69- 50.2-----
2024-04-15 02:42 am SW 6.0 7.0----29.69- 50.2-----
2024-04-15 02:36 am SW 6.0 7.0----29.69- 50.2-----
2024-04-15 02:30 am SW 5.1 5.1----29.69- 50.0-----
2024-04-15 02:24 am SW 5.1 6.0----29.68- 50.0-----
2024-04-15 02:18 amWSW 5.1 6.0----29.68- 50.0-----
2024-04-15 02:12 amWSW 6.0 6.0----29.68- 50.0-----
2024-04-15 02:06 amWSW 5.1 6.0----29.69- 50.4-----
2024-04-15 02:00 amWSW 1.9 2.9----29.69-0.04 50.7-----
2024-04-15 01:54 am- 0.0 1.0----29.69- 50.9-----
2024-04-15 01:48 amSSW 1.9 1.9----29.70- 51.3-----
2024-04-15 01:42 am- 0.0 1.0----29.70- 51.3-----
2024-04-15 01:36 am- 0.0 1.9----29.70- 51.4-----
2024-04-15 01:30 am S 1.9 4.1----29.70- 51.4-----
2024-04-15 01:24 am S 1.9 4.1----29.70- 51.6-----
2024-04-15 01:18 am S 2.9 5.1----29.70- 51.8-----
2024-04-15 01:12 am S 5.1 7.0----29.70- 51.8-----
2024-04-15 01:06 amSSW 5.1 6.0----29.70- 51.4-----
2024-04-15 01:00 am S 5.1 8.0----29.70-0.04 51.3-----
2024-04-15 12:54 am S 6.0 7.0----29.70- 51.3-----
2024-04-15 12:48 am S 5.1 6.0----29.70- 51.1-----
2024-04-15 12:42 am S 5.1 6.0----29.70- 51.3-----
2024-04-15 12:36 am S 5.1 6.0----29.70- 51.1-----
2024-04-15 12:30 am S 2.9 4.1----29.70- 50.9-----
2024-04-15 12:24 am S 1.9 2.9----29.70- 50.9-----
2024-04-15 12:18 amSSE 1.9 2.9----29.70- 51.1-----
2024-04-15 12:12 amSSE 2.9 4.1----29.71- 51.1-----
2024-04-15 12:06 am S 2.9 4.1----29.72- 51.3-----
2024-04-15 12:00 am S 4.1 4.1----29.72-0.02 51.1-----
2024-04-14 11:54 pm S 4.1 4.1----29.72- 51.1-----
2024-04-14 11:48 pm S 2.9 4.1----29.72- 51.1-----
2024-04-14 11:42 pmSSW 5.1 6.0----29.72- 51.3-----
2024-04-14 11:36 pmSSW 5.1 6.0----29.72- 51.3-----
2024-04-14 11:30 pm SW 6.0 7.0----29.72- 51.3-----
2024-04-14 11:24 pmSSW 7.0 8.0----29.72- 51.3-----
2024-04-14 11:18 pm SW 7.0 8.0----29.72- 51.3-----
2024-04-14 11:12 pmSSW 7.0 8.9----29.72- 51.3-----
2024-04-14 11:06 pm SW 8.0 9.9----29.72- 51.3-----
2024-04-14 11:00 pm SW 8.9 9.9----29.73-0.01 51.3-----
2024-04-14 10:54 pm SW 8.9 11.1----29.72- 51.4-----
2024-04-14 10:48 pm SW 11.1 13.0----29.73- 51.6-----
2024-04-14 10:42 pm SW 12.0 14.0----29.72- 51.8-----
2024-04-14 10:36 pm SW 12.0 13.0----29.72- 51.6-----
2024-04-14 10:30 pm SW 11.1 15.0----29.73- 51.6-----
2024-04-14 10:24 pmSSW 13.0 15.9----29.72- 51.8-----
2024-04-14 10:18 pmSSW 12.0 14.0----29.73- 51.6-----
2024-04-14 10:12 pm SW 13.0 15.9----29.74- 51.6-----
2024-04-14 10:06 pm SW 13.0 15.9----29.74- 51.6-----
2024-04-14 10:00 pmSSW 13.0 15.9----29.74-0.03 51.6-----
2024-04-14 09:54 pmSSW 12.0 15.0----29.74- 51.6-----
2024-04-14 09:48 pm SW 13.0 15.9----29.74- 51.6-----
2024-04-14 09:42 pmSSW 12.0 15.0----29.74- 51.6-----
2024-04-14 09:36 pmSSW 12.0 17.1----29.74- 51.6-----
2024-04-14 09:30 pmSSW 15.9 19.0----29.74- 51.6-----
2024-04-14 09:24 pmSSW 14.0 19.0----29.74- 51.6-----
2024-04-14 09:18 pmSSW 9.9 15.0----29.73- 51.3-----
2024-04-14 09:12 pm S 6.0 8.9----29.73- 50.7-----
2024-04-14 09:06 pm S 5.1 8.9----29.74- 50.4-----
2024-04-14 09:00 pmSSE 2.9 4.1----29.74-0.05 50.4-----
2024-04-14 08:54 pmSSE 5.1 7.0----29.74- 50.4-----
2024-04-14 08:48 pm S 5.1 7.0----29.74-------
2024-04-14 08:42 pm S 5.1 6.0----29.74-------
2024-04-14 08:36 pm S 6.0 9.9----29.74-------
2024-04-14 08:30 pm-------29.74- 50.5-----
2024-04-14 08:24 pm-------29.74- 50.4-----
2024-04-14 08:18 pm S 6.0 8.0------ 50.4-----
2024-04-14 08:12 pm S 6.0 8.9------ 50.2-----
2024-04-14 08:06 pm S 6.0 8.0------ 50.0-----
2024-04-14 08:00 pm S 6.0 8.9----29.74-0.04 50.2-----
2024-04-14 07:54 pm S 8.0 11.1----29.74- 50.2-----
2024-04-14 07:48 pm SW 4.1 7.0----29.75- 49.8-----
2024-04-14 07:42 pm S 4.1 7.0----29.75- 49.8-----
2024-04-14 07:36 pm S 5.1 7.0----29.74- 49.5-----
2024-04-14 07:30 pmSSE 5.1 6.0----29.74- 49.3-----
2024-04-14 07:24 pmSSE 4.1 6.0----29.75- 49.3-----
2024-04-14 07:00 pm S 8.0 11.1----29.77-0.01------
2024-04-14 06:54 pm S 8.9 12.0----29.78-------
2024-04-14 06:48 pm S 8.9 12.0----29.78- 50.0-----
2024-04-14 06:42 pm S 8.9 13.0----29.78- 50.2-----
2024-04-14 06:36 pm S 11.1 14.0----29.79- 50.4-----
2024-04-14 06:30 pmSSW 7.0 9.9----29.80- 50.4-----
2024-04-14 06:24 pmSSW 9.9 11.1----29.81- 50.7-----
2024-04-14 06:18 pm SW 9.9 11.1----29.82- 50.9-----
2024-04-14 06:12 pm SW 9.9 11.1----29.81- 50.9-----
2024-04-14 06:06 pm SW 9.9 13.0----29.80- 51.4-----
2024-04-14 06:00 pmSSW 6.0 8.9----29.79-0.01 52.0-----
2024-04-14 05:54 pmSSW 7.0 9.9----29.78- 52.3-----
2024-04-14 05:48 pm S 12.0 15.0----29.75-------
2024-04-14 05:42 pm S 9.9 14.0----29.75-------
2024-04-14 05:36 pmSSW 8.0 9.9----29.78-------
2024-04-14 05:30 pmSSW 8.0 9.9----29.78-------
2024-04-14 05:24 pmSSW 9.9 13.0----29.78-------
2024-04-14 05:18 pmSSW 12.0 14.0----29.78- 53.1-----
2024-04-14 05:12 pmSSW 12.0 15.0----29.78- 53.2-----
2024-04-14 05:06 pmSSW 15.0 19.0----29.78- 53.2-----
2024-04-14 05:00 pmSSW 15.9 22.0----29.78-0.08 53.2-----
2024-04-14 04:54 pmSSW 14.0 17.1----29.78- 53.2-----
2024-04-14 04:48 pmSSW 15.0 19.0----29.78- 53.6-----
2024-04-14 04:42 pmSSW 17.1 24.1----29.78- 54.0-----
2024-04-14 04:36 pmSSW 19.0 22.0----29.77- 54.5-----
2024-04-14 04:30 pmSSW 15.9 19.0----29.76- 54.7-----
2024-04-14 04:24 pmSSW 20.0 24.1----29.77- 54.9-----
2024-04-14 04:18 pmSSW 19.0 25.1----29.78- 55.6-----
2024-04-14 04:12 pmSSW 15.0 20.0----29.78- 56.5-----
2024-04-14 04:06 pm S 12.0 15.9----29.78- 56.1-----
2024-04-14 04:00 pm S 12.0 15.0----29.78-0.10 56.5-----
2024-04-14 03:54 pm S 11.1 15.0----29.77- 57.2-----
2024-04-14 03:48 pmSSW 8.9 14.0----29.78- 56.7-----
2024-04-14 03:42 pm S 9.9 12.0----29.78- 55.9-----
2024-04-14 03:36 pmSSW 12.0 15.9----29.79- 55.9-----
2024-04-14 03:30 pmSSW 9.9 12.0----29.79- 55.6-----
2024-04-14 03:24 pmSSW 8.9 11.1----29.80- 54.9-----
2024-04-14 03:18 pmSSW 8.0 8.9----29.79- 54.9-----
2024-04-14 03:12 pm SW 8.0 9.9----29.80- 54.7-----
2024-04-14 03:06 pmSSW 8.0 9.9----29.80- 54.5-----
2024-04-14 03:00 pmSSW 8.0 11.1----29.80-0.08------
2024-04-14 02:54 pmSSW 8.0 9.9----29.80-------
2024-04-14 02:48 pmSSW 9.9 12.0----29.82- 54.3-----
2024-04-14 02:42 pmSSW 9.9 12.0----29.82- 54.1-----
2024-04-14 02:36 pmSSW 12.0 13.0----29.83- 53.8-----
2024-04-14 02:30 pmSSW 11.1 12.0----29.83- 53.4-----
2024-04-14 02:24 pmSSW 9.9 12.0----29.83- 53.1-----
2024-04-14 02:18 pm SW 14.0 15.9----29.85- 53.1-----
2024-04-14 02:12 pm SW 15.0 17.1----29.86- 53.6-----
2024-04-14 02:06 pmWSW 18.1 21.0----29.86- 54.0-----
2024-04-14 02:00 pm SW 17.1 19.0----29.86-0.03 53.1-----
2024-04-14 01:54 pm SW 17.1 19.0----29.87- 54.0-----